Location: *
(29.1167°S, 130.0000°E)
Time: 23:22:40
(UTC+00:00)

Palapa 6 Rocket - Pass Details

Date: 21 July 2019
Orbit: 485 x 1218 km, 22.7° (Epoch: 25 August)

Event Time Altitude Azimuth Distance (km) Brightness Sun altitude
Rises 09:36:05 0° 281° (W) 3,006 8.7 -11.8°
Reaches altitude 10° 09:38:22 10° 288° (WNW) 2,196 7.4 -12.3°
Maximum altitude 09:43:20 44° 359° (N) 1,128 4.5 -13.3°
Enters shadow 09:48:58 12° 68° (ENE) 2,533 5.7 -14.5°
